Wetterdaten: Donnerstag, 03.03.2016
Datum Zeit Auen-Temp. Temp gefhlt Luftfeuchte Luftdruck Regen Wind Richtung Richtung Sonnenschein Taupunkt Windben
03.03.2016 00:00 -1,3 C -1,8 C 89 % 1003,1 hPa 0,0 mm 5,7 km/h (1 Bft) SW 225 0 min -2,9 C 8,0 km/h (2 Bft)
03.03.2016 00:05 -1,4 C -1,8 C 88 % 1003,1 hPa 0,0 mm 4,8 km/h (1 Bft) SW 225 0 min -3,1 C 4,8 km/h (1 Bft)
03.03.2016 00:10 -1,4 C -1,9 C 88 % 1003,1 hPa 0,0 mm 5,4 km/h (1 Bft) SW 225 0 min -3,1 C 6,9 km/h (2 Bft)
03.03.2016 00:15 -1,4 C -1,9 C 88 % 1003,1 hPa 0,0 mm 5,1 km/h (1 Bft) SW 225 0 min -3,1 C 7,5 km/h (2 Bft)
03.03.2016 00:20 -1,4 C -1,9 C 88 % 1003,1 hPa 0,0 mm 4,8 km/h (1 Bft) SW 225 0 min -3,1 C 10,4 km/h (2 Bft)
03.03.2016 00:25 -1,5 C -2,0 C 87 % 1003,1 hPa 0,0 mm 5,1 km/h (1 Bft) SW 225 0 min -3,4 C 4,5 km/h (1 Bft)
03.03.2016 00:30 -1,6 C -2,0 C 87 % 1002,6 hPa 0,0 mm 4,5 km/h (1 Bft) SW 225 0 min -3,5 C 4,8 km/h (1 Bft)
03.03.2016 00:35 -1,5 C -2,0 C 87 % 1002,6 hPa 0,0 mm 4,8 km/h (1 Bft) SW 225 0 min -3,4 C 6,9 km/h (2 Bft)
03.03.2016 00:40 -1,5 C -1,9 C 87 % 1002,6 hPa 0,0 mm 4,2 km/h (1 Bft) SW 225 0 min -3,4 C 5,4 km/h (1 Bft)
03.03.2016 00:45 -1,6 C -1,9 C 86 % 1002,6 hPa 0,0 mm 3,3 km/h (1 Bft) SW 225 0 min -3,6 C 4,8 km/h (1 Bft)
03.03.2016 00:50 -1,6 C -2,0 C 86 % 1002,4 hPa 0,0 mm 3,0 km/h (1 Bft) SW 225 0 min -3,6 C 3,9 km/h (1 Bft)
03.03.2016 00:55 -1,6 C -2,0 C 86 % 1002,4 hPa 0,0 mm 2,7 km/h (1 Bft) SW 225 0 min -3,6 C 8,3 km/h (2 Bft)
03.03.2016 01:00 -1,6 C -2,0 C 87 % 1002,4 hPa 0,0 mm 2,1 km/h (1 Bft) SW 225 0 min -3,5 C 0,0 km/h (0 Bft)
03.03.2016 01:05 -1,7 C -2,1 C 87 % 1002,4 hPa 0,0 mm 0,6 km/h (0 Bft) SW 225 0 min -3,6 C 0,0 km/h (0 Bft)
03.03.2016 01:10 -1,8 C -2,1 C 87 % 1002,5 hPa 0,0 mm 0,0 km/h (0 Bft) SW 225 0 min -3,7 C 0,0 km/h (0 Bft)
03.03.2016 01:15 -1,8 C -2,2 C 88 % 1002,5 hPa 0,0 mm 0,0 km/h (0 Bft) SW 225 0 min -3,5 C 0,0 km/h (0 Bft)
03.03.2016 01:20 -1,8 C -2,2 C 88 % 1002,5 hPa 0,0 mm 0,0 km/h (0 Bft) SW 225 0 min -3,5 C 0,0 km/h (0 Bft)
03.03.2016 01:25 -1,8 C -2,2 C 88 % 1002,5 hPa 0,0 mm 0,0 km/h (0 Bft) SW 225 0 min -3,5 C 0,0 km/h (0 Bft)
03.03.2016 01:30 -1,8 C -2,2 C 89 % 1002,4 hPa 0,0 mm 0,0 km/h (0 Bft) SW 225 0 min -3,4 C 0,0 km/h (0 Bft)
03.03.2016 01:35 -2,0 C -2,3 C 89 % 1002,4 hPa 0,0 mm 0,0 km/h (0 Bft) SW 225 0 min -3,6 C 0,0 km/h (0 Bft)
03.03.2016 01:40 -2,0 C -2,4 C 89 % 1002,4 hPa 0,0 mm 0,0 km/h (0 Bft) SW 225 0 min -3,6 C 0,0 km/h (0 Bft)
03.03.2016 01:45 -2,0 C -2,4 C 89 % 1002,4 hPa 0,0 mm 0,0 km/h (0 Bft) SW 225 0 min -3,6 C 0,0 km/h (0 Bft)
03.03.2016 01:50 -2,1 C -2,4 C 89 % 1002,4 hPa 0,0 mm 0,0 km/h (0 Bft) SW 225 0 min -3,7 C 0,0 km/h (0 Bft)
03.03.2016 01:55 -2,1 C -2,5 C 89 % 1002,4 hPa 0,0 mm 0,0 km/h (0 Bft) SW 225 0 min -3,7 C 0,0 km/h (0 Bft)
03.03.2016 02:00 -2,1 C -2,5 C 89 % 1002,4 hPa 0,0 mm 0,0 km/h (0 Bft) SW 225 0 min -3,7 C 0,0 km/h (0 Bft)
03.03.2016 02:05 -2,1 C -2,5 C 89 % 1002,4 hPa 0,0 mm 0,0 km/h (0 Bft) SW 225 0 min -3,7 C 0,0 km/h (0 Bft)
03.03.2016 02:10 -2,3 C -2,6 C 89 % 1002,4 hPa 0,0 mm 0,0 km/h (0 Bft) SW 225 0 min -3,9 C 0,0 km/h (0 Bft)
03.03.2016 02:15 -2,5 C -2,8 C 88 % 1002,4 hPa 0,0 mm 0,0 km/h (0 Bft) SW 225 0 min -4,2 C 0,0 km/h (0 Bft)
03.03.2016 02:20 -2,4 C -2,8 C 89 % 1002,4 hPa 0,0 mm 0,0 km/h (0 Bft) SW 225 0 min -4,0 C 0,0 km/h (0 Bft)
03.03.2016 02:25 -2,3 C -2,7 C 89 % 1002,4 hPa 0,0 mm 0,0 km/h (0 Bft) SW 225 0 min -3,9 C 4,2 km/h (1 Bft)
03.03.2016 02:30 -2,3 C -2,7 C 89 % 1002,1 hPa 0,0 mm 0,0 km/h (0 Bft) SW 225 0 min -3,9 C 0,0 km/h (0 Bft)
03.03.2016 02:35 -2,7 C -3,0 C 89 % 1002,1 hPa 0,0 mm 0,0 km/h (0 Bft) SW 225 0 min -4,3 C 0,0 km/h (0 Bft)
03.03.2016 02:40 -2,6 C -2,9 C 89 % 1002,1 hPa 0,0 mm 0,0 km/h (0 Bft) SW 225 0 min -4,2 C 0,0 km/h (0 Bft)
03.03.2016 02:45 -2,8 C -3,0 C 89 % 1002,1 hPa 0,0 mm 0,0 km/h (0 Bft) SW 225 0 min -4,4 C 0,0 km/h (0 Bft)
03.03.2016 02:46 -2,8 C -3,0 C 89 % 1002,1 hPa 0,0 mm 0,0 km/h (0 Bft) SW 225 0 min -4,4 C 0,0 km/h (0 Bft)
03.03.2016 02:50 -2,7 C -3,0 C 89 % 1002,1 hPa 0,0 mm 0,0 km/h (0 Bft) SW 225 0 min -4,3 C 0,0 km/h (0 Bft)
03.03.2016 02:55 -2,6 C -2,9 C 89 % 1002,1 hPa 0,0 mm 0,0 km/h (0 Bft) SW 225 0 min -4,2 C 0,0 km/h (0 Bft)
03.03.2016 03:00 -2,4 C -2,6 C 85 % 1002,1 hPa 0,0 mm 0,9 km/h (0 Bft) SW 225 0 min -4,6 C 5,4 km/h (1 Bft)
03.03.2016 03:05 -1,8 C -2,5 C 85 % 1002,1 hPa 0,0 mm 8,9 km/h (2 Bft) SW 225 0 min -4,0 C 17,9 km/h (3 Bft)
03.03.2016 03:10 -1,5 C -2,7 C 86 % 1002,7 hPa 0,0 mm 14,0 km/h (3 Bft) SW 225 0 min -3,5 C 37,0 km/h (5 Bft)
03.03.2016 03:15 -1,5 C -2,5 C 86 % 1002,7 hPa 0,0 mm 12,8 km/h (3 Bft) SW 225 0 min -3,5 C 12,2 km/h (2 Bft)
03.03.2016 03:20 -1,5 C -2,4 C 86 % 1002,7 hPa 0,0 mm 11,6 km/h (2 Bft) SW 225 0 min -3,5 C 24,4 km/h (4 Bft)
03.03.2016 03:25 -1,4 C -2,3 C 86 % 1002,7 hPa 0,0 mm 11,0 km/h (2 Bft) SW 225 0 min -3,4 C 10,4 km/h (2 Bft)
03.03.2016 03:30 -1,4 C -2,3 C 86 % 1002,6 hPa 0,0 mm 11,3 km/h (2 Bft) SW 225 0 min -3,4 C 10,4 km/h (2 Bft)
03.03.2016 03:35 -1,4 C -2,3 C 86 % 1002,6 hPa 0,0 mm 11,0 km/h (2 Bft) SW 225 0 min -3,4 C 18,2 km/h (3 Bft)
03.03.2016 03:40 -1,4 C -2,2 C 85 % 1002,6 hPa 0,0 mm 9,8 km/h (2 Bft) SW 225 0 min -3,6 C 13,7 km/h (3 Bft)
03.03.2016 03:45 -1,4 C -2,2 C 89 % 1002,6 hPa 0,0 mm 9,2 km/h (2 Bft) SW 225 0 min -3,0 C 18,5 km/h (3 Bft)
03.03.2016 03:50 -1,4 C -2,3 C 89 % 1002,8 hPa 0,0 mm 10,7 km/h (2 Bft) SW 225 0 min -3,0 C 20,0 km/h (4 Bft)
03.03.2016 03:55 -1,5 C -2,5 C 85 % 1002,8 hPa 0,0 mm 11,9 km/h (2 Bft) SW 225 0 min -3,7 C 8,9 km/h (2 Bft)
03.03.2016 04:00 -1,5 C -2,4 C 88 % 1002,8 hPa 0,0 mm 10,1 km/h (2 Bft) SW 225 0 min -3,2 C 4,5 km/h (1 Bft)
03.03.2016 04:05 -1,5 C -2,3 C 88 % 1002,8 hPa 0,0 mm 8,3 km/h (2 Bft) SW 225 0 min -3,2 C 9,2 km/h (2 Bft)
03.03.2016 04:10 -1,5 C -2,3 C 88 % 1002,8 hPa 0,0 mm 8,6 km/h (2 Bft) SW 225 0 min -3,2 C 8,9 km/h (2 Bft)
03.03.2016 04:15 -1,5 C -2,4 C 87 % 1002,8 hPa 0,0 mm 8,9 km/h (2 Bft) SW 225 0 min -3,4 C 7,7 km/h (2 Bft)
03.03.2016 04:20 -1,5 C -2,4 C 87 % 1002,8 hPa 0,0 mm 9,5 km/h (2 Bft) SW 225 0 min -3,4 C 10,7 km/h (2 Bft)
03.03.2016 04:25 -1,6 C -2,5 C 86 % 1002,8 hPa 0,0 mm 9,5 km/h (2 Bft) SW 225 0 min -3,6 C 9,8 km/h (2 Bft)
03.03.2016 04:30 -1,6 C -2,5 C 86 % 1003,0 hPa 0,0 mm 8,9 km/h (2 Bft) SW 225 0 min -3,6 C 7,2 km/h (2 Bft)
03.03.2016 04:35 -1,7 C -2,2 C 86 % 1003,0 hPa 0,0 mm 5,7 km/h (1 Bft) SW 225 0 min -3,7 C 7,2 km/h (2 Bft)
03.03.2016 04:40 -1,7 C -2,1 C 86 % 1003,0 hPa 0,0 mm 4,8 km/h (1 Bft) SW 225 0 min -3,7 C 8,9 km/h (2 Bft)
03.03.2016 04:45 -1,8 C -2,2 C 86 % 1003,0 hPa 0,0 mm 4,8 km/h (1 Bft) SW 225 0 min -3,8 C 11,9 km/h (2 Bft)
03.03.2016 04:50 -1,8 C -2,2 C 86 % 1003,0 hPa 0,0 mm 4,8 km/h (1 Bft) SW 225 0 min -3,8 C 3,0 km/h (1 Bft)
03.03.2016 04:55 -1,8 C -2,3 C 86 % 1003,0 hPa 0,0 mm 5,1 km/h (1 Bft) SW 225 0 min -3,8 C 4,2 km/h (1 Bft)
03.03.2016 05:00 -1,8 C -2,3 C 86 % 1003,0 hPa 0,0 mm 5,1 km/h (1 Bft) SW 225 0 min -3,8 C 8,9 km/h (2 Bft)
03.03.2016 05:05 -1,8 C -2,2 C 86 % 1003,0 hPa 0,0 mm 4,5 km/h (1 Bft) SW 225 0 min -3,8 C 3,3 km/h (1 Bft)
03.03.2016 05:10 -1,8 C -2,2 C 86 % 1002,9 hPa 0,0 mm 4,8 km/h (1 Bft) SW 225 0 min -3,8 C 0,0 km/h (0 Bft)
03.03.2016 05:15 -1,8 C -2,4 C 86 % 1002,9 hPa 0,0 mm 5,7 km/h (1 Bft) SW 225 0 min -3,8 C 7,2 km/h (2 Bft)
03.03.2016 05:20 -1,8 C -2,4 C 86 % 1002,9 hPa 0,0 mm 6,3 km/h (2 Bft) SW 225 0 min -3,8 C 6,6 km/h (2 Bft)
03.03.2016 05:25 -1,8 C -2,1 C 86 % 1002,9 hPa 0,0 mm 4,2 km/h (1 Bft) SW 225 0 min -3,8 C 3,6 km/h (1 Bft)
03.03.2016 05:30 -1,8 C -2,1 C 86 % 1002,8 hPa 0,0 mm 3,6 km/h (1 Bft) SW 225 0 min -3,8 C 4,8 km/h (1 Bft)
03.03.2016 05:35 -2,0 C -2,6 C 86 % 1002,8 hPa 0,0 mm 6,0 km/h (2 Bft) SW 225 0 min -4,0 C 10,4 km/h (2 Bft)
03.03.2016 05:40 -2,0 C -2,7 C 85 % 1002,8 hPa 0,0 mm 6,9 km/h (2 Bft) SW 225 0 min -4,2 C 5,1 km/h (1 Bft)
03.03.2016 05:45 -2,1 C -2,8 C 85 % 1002,8 hPa 0,0 mm 6,6 km/h (2 Bft) SW 225 0 min -4,3 C 6,9 km/h (2 Bft)
03.03.2016 05:46 -2,1 C -2,8 C 85 % 1002,8 hPa 0,0 mm 6,6 km/h (2 Bft) SW 225 0 min -4,3 C 6,9 km/h (2 Bft)
03.03.2016 05:50 -2,0 C -2,7 C 85 % 1002,5 hPa 0,0 mm 6,6 km/h (2 Bft) SW 225 0 min -4,2 C 13,4 km/h (3 Bft)
03.03.2016 05:55 -2,2 C -2,8 C 85 % 1002,5 hPa 0,0 mm 6,3 km/h (2 Bft) SW 225 0 min -4,4 C 6,3 km/h (2 Bft)
03.03.2016 06:00 -2,1 C -2,8 C 85 % 1002,5 hPa 0,0 mm 6,3 km/h (2 Bft) SW 225 0 min -4,3 C 4,5 km/h (1 Bft)
03.03.2016 06:05 -2,1 C -2,9 C 85 % 1002,5 hPa 0,0 mm 7,5 km/h (2 Bft) SW 225 0 min -4,3 C 8,0 km/h (2 Bft)
03.03.2016 06:10 -2,0 C -2,7 C 85 % 1003,1 hPa 0,0 mm 6,9 km/h (2 Bft) SW 225 0 min -4,2 C 6,6 km/h (2 Bft)
03.03.2016 06:15 -2,2 C -2,8 C 85 % 1003,1 hPa 0,0 mm 6,0 km/h (2 Bft) SW 225 0 min -4,4 C 6,3 km/h (2 Bft)
03.03.2016 06:20 -2,2 C -2,6 C 85 % 1003,1 hPa 0,0 mm 4,8 km/h (1 Bft) SW 225 0 min -4,4 C 10,7 km/h (2 Bft)
03.03.2016 06:25 -2,2 C -2,6 C 85 % 1003,1 hPa 0,0 mm 4,8 km/h (1 Bft) SW 225 0 min -4,4 C 7,5 km/h (2 Bft)
03.03.2016 06:30 -2,2 C -2,8 C 85 % 1003,1 hPa 0,0 mm 6,0 km/h (2 Bft) SW 225 0 min -4,4 C 11,3 km/h (2 Bft)
03.03.2016 06:35 -2,2 C -2,9 C 85 % 1003,1 hPa 0,0 mm 6,6 km/h (2 Bft) SW 225 0 min -4,4 C 10,4 km/h (2 Bft)
03.03.2016 06:40 -2,1 C -2,8 C 85 % 1003,1 hPa 0,0 mm 6,6 km/h (2 Bft) SW 225 0 min -4,3 C 12,2 km/h (2 Bft)
03.03.2016 06:45 -2,2 C -2,7 C 85 % 1003,1 hPa 0,0 mm 5,7 km/h (1 Bft) SW 225 0 min -4,4 C 3,6 km/h (1 Bft)
03.03.2016 06:50 -2,2 C -2,7 C 85 % 1003,1 hPa 0,0 mm 5,1 km/h (1 Bft) SW 225 0 min -4,4 C 6,0 km/h (2 Bft)
03.03.2016 06:55 -2,2 C -2,8 C 85 % 1003,1 hPa 0,0 mm 5,7 km/h (1 Bft) SW 225 0 min -4,4 C 8,6 km/h (2 Bft)
03.03.2016 07:00 -2,1 C -2,8 C 85 % 1003,1 hPa 0,0 mm 6,3 km/h (2 Bft) SW 225 0 min -4,3 C 6,3 km/h (2 Bft)
03.03.2016 07:05 -2,3 C -2,7 C 85 % 1003,1 hPa 0,0 mm 4,8 km/h (1 Bft) SW 225 0 min -4,5 C 7,2 km/h (2 Bft)
03.03.2016 07:10 -2,2 C -2,5 C 84 % 1002,8 hPa 0,0 mm 3,9 km/h (1 Bft) SW 225 0 min -4,5 C 0,0 km/h (0 Bft)
03.03.2016 07:15 -2,2 C -2,5 C 84 % 1002,8 hPa 0,0 mm 3,6 km/h (1 Bft) SW 225 0 min -4,5 C 4,2 km/h (1 Bft)
03.03.2016 07:20 -2,2 C -2,5 C 84 % 1002,8 hPa 0,0 mm 2,7 km/h (1 Bft) SW 225 0 min -4,5 C 6,3 km/h (2 Bft)
03.03.2016 07:25 -2,1 C -2,4 C 84 % 1002,8 hPa 0,0 mm 3,9 km/h (1 Bft) SW 225 0 min -4,4 C 6,0 km/h (2 Bft)
03.03.2016 07:30 -2,1 C -2,4 C 84 % 1003,1 hPa 0,0 mm 4,2 km/h (1 Bft) SW 225 0 min -4,4 C 3,6 km/h (1 Bft)
03.03.2016 07:35 -2,1 C -2,4 C 84 % 1003,1 hPa 0,0 mm 3,0 km/h (1 Bft) SW 225 0 min -4,4 C 3,6 km/h (1 Bft)
03.03.2016 07:40 -2,1 C -2,4 C 84 % 1003,1 hPa 0,0 mm 2,7 km/h (1 Bft) SW 225 0 min -4,4 C 5,4 km/h (1 Bft)
03.03.2016 07:45 -2,0 C -2,4 C 84 % 1003,1 hPa 0,0 mm 4,2 km/h (1 Bft) SW 225 0 min -4,3 C 4,5 km/h (1 Bft)
03.03.2016 07:50 -2,0 C -2,4 C 84 % 1003,1 hPa 0,0 mm 4,2 km/h (1 Bft) SW 225 0 min -4,3 C 4,8 km/h (1 Bft)
03.03.2016 07:55 -2,0 C -2,2 C 82 % 1003,1 hPa 0,0 mm 4,2 km/h (1 Bft) SW 225 0 min -4,7 C 3,6 km/h (1 Bft)
03.03.2016 08:00 -2,0 C -2,1 C 82 % 1003,1 hPa 0,0 mm 4,2 km/h (1 Bft) SW 225 0 min -4,7 C 3,6 km/h (1 Bft)
03.03.2016 08:05 -2,0 C -2,0 C 82 % 1003,1 hPa 0,0 mm 3,3 km/h (1 Bft) SW 225 0 min -4,7 C 4,5 km/h (1 Bft)
03.03.2016 08:10 -2,0 C -1,9 C 82 % 1002,8 hPa 0,0 mm 3,3 km/h (1 Bft) SW 225 0 min -4,7 C 6,0 km/h (2 Bft)
03.03.2016 08:15 -1,8 C -1,9 C 81 % 1002,8 hPa 0,0 mm 3,0 km/h (1 Bft) SW 225 0 min -4,6 C 0,0 km/h (0 Bft)
03.03.2016 08:20 -2,0 C -1,9 C 81 % 1002,8 hPa 0,0 mm 2,1 km/h (1 Bft) SW 225 0 min -4,8 C 0,0 km/h (0 Bft)
03.03.2016 08:25 -2,0 C -1,8 C 81 % 1002,8 hPa 0,0 mm 0,9 km/h (0 Bft) SW 225 0 min -4,8 C 4,5 km/h (1 Bft)
03.03.2016 08:30 -2,0 C -1,7 C 81 % 1002,9 hPa 0,0 mm 2,1 km/h (1 Bft) SW 225 0 min -4,8 C 3,9 km/h (1 Bft)
03.03.2016 08:35 -1,8 C -1,6 C 81 % 1002,9 hPa 0,0 mm 4,2 km/h (1 Bft) SW 225 0 min -4,6 C 3,6 km/h (1 Bft)
03.03.2016 08:40 -1,8 C -1,4 C 81 % 1002,9 hPa 0,0 mm 3,3 km/h (1 Bft) SW 225 0 min -4,6 C 0,0 km/h (0 Bft)
03.03.2016 08:45 -1,7 C -1,3 C 81 % 1002,9 hPa 0,0 mm 1,8 km/h (1 Bft) SW 225 0 min -4,5 C 5,1 km/h (1 Bft)
03.03.2016 08:47 -1,7 C -1,3 C 81 % 1002,9 hPa 0,0 mm 1,8 km/h (1 Bft) SW 225 0 min -4,5 C 5,1 km/h (1 Bft)
03.03.2016 08:50 -1,7 C -1,4 C 81 % 1002,6 hPa 0,0 mm 1,5 km/h (1 Bft) SW 225 0 min -4,5 C 0,0 km/h (0 Bft)
03.03.2016 08:55 -1,7 C -1,3 C 81 % 1002,6 hPa 0,0 mm 1,2 km/h (1 Bft) SW 225 0 min -4,5 C 3,0 km/h (1 Bft)
03.03.2016 09:00 -1,7 C -1,2 C 81 % 1002,6 hPa 0,0 mm 0,3 km/h (0 Bft) SW 225 0 min -4,5 C 3,6 km/h (1 Bft)
03.03.2016 09:05 -1,7 C -1,0 C 81 % 1002,6 hPa 0,0 mm 1,5 km/h (1 Bft) SW 225 0 min -4,5 C 6,3 km/h (2 Bft)
03.03.2016 09:10 -1,6 C -0,9 C 81 % 1002,9 hPa 0,0 mm 1,8 km/h (1 Bft) SW 225 0 min -4,4 C 5,4 km/h (1 Bft)
03.03.2016 09:15 -1,5 C -0,7 C 81 % 1002,9 hPa 0,0 mm 3,0 km/h (1 Bft) SW 225 0 min -4,3 C 3,3 km/h (1 Bft)
03.03.2016 09:20 -1,3 C -0,6 C 81 % 1002,9 hPa 0,0 mm 3,9 km/h (1 Bft) SW 225 0 min -4,1 C 7,2 km/h (2 Bft)
03.03.2016 09:25 -1,3 C -0,5 C 80 % 1002,9 hPa 0,0 mm 3,9 km/h (1 Bft) SW 225 0 min -4,3 C 6,6 km/h (2 Bft)
03.03.2016 09:30 -1,2 C -0,4 C 80 % 1003,1 hPa 0,0 mm 4,2 km/h (1 Bft) SW 225 0 min -4,2 C 5,4 km/h (1 Bft)
03.03.2016 09:35 -1,2 C -0,4 C 79 % 1003,1 hPa 0,0 mm 3,9 km/h (1 Bft) SW 225 0 min -4,4 C 6,3 km/h (2 Bft)
03.03.2016 09:40 -1,2 C -0,2 C 79 % 1003,1 hPa 0,0 mm 3,3 km/h (1 Bft) SW 225 0 min -4,4 C 0,0 km/h (0 Bft)
03.03.2016 09:45 -1,1 C 0,0 C 79 % 1003,1 hPa 0,0 mm 3,0 km/h (1 Bft) SW 225 0 min -4,3 C 7,7 km/h (2 Bft)
03.03.2016 09:50 -1,1 C 0,0 C 79 % 1002,7 hPa 0,0 mm 3,9 km/h (1 Bft) SW 225 0 min -4,3 C 6,0 km/h (2 Bft)
03.03.2016 09:55 -1,0 C 0,1 C 79 % 1002,7 hPa 0,0 mm 4,2 km/h (1 Bft) SW 225 0 min -4,2 C 5,1 km/h (1 Bft)
03.03.2016 10:00 -1,0 C 0,1 C 78 % 1002,7 hPa 0,0 mm 3,9 km/h (1 Bft) SW 225 0 min -4,3 C 6,6 km/h (2 Bft)
03.03.2016 10:05 -1,0 C 0,2 C 78 % 1002,7 hPa 0,0 mm 4,8 km/h (1 Bft) SW 225 0 min -4,3 C 5,4 km/h (1 Bft)
03.03.2016 10:10 -0,9 C 0,2 C 78 % 1002,6 hPa 0,0 mm 4,8 km/h (1 Bft) SW 225 0 min -4,2 C 5,7 km/h (1 Bft)
03.03.2016 10:15 -0,7 C 0,5 C 78 % 1002,6 hPa 0,0 mm 3,3 km/h (1 Bft) SW 225 0 min -4,0 C 4,8 km/h (1 Bft)
03.03.2016 10:20 -0,7 C 0,8 C 78 % 1002,6 hPa 0,0 mm 2,4 km/h (1 Bft) SW 225 0 min -4,0 C 3,3 km/h (1 Bft)
03.03.2016 10:25 -0,3 C 1,1 C 78 % 1002,6 hPa 0,0 mm 1,2 km/h (1 Bft) SW 225 0 min -3,7 C 3,6 km/h (1 Bft)
03.03.2016 10:30 -0,3 C 1,2 C 78 % 1002,6 hPa 0,0 mm 0,9 km/h (0 Bft) SW 225 0 min -3,7 C 0,0 km/h (0 Bft)
03.03.2016 10:35 -0,3 C 1,4 C 78 % 1002,6 hPa 0,0 mm 0,9 km/h (0 Bft) SW 225 0 min -3,7 C 0,0 km/h (0 Bft)
03.03.2016 10:40 -0,3 C 1,6 C 77 % 1002,6 hPa 0,0 mm 0,6 km/h (0 Bft) SW 225 0 min -3,8 C 0,0 km/h (0 Bft)
03.03.2016 10:45 -0,2 C 1,9 C 77 % 1002,6 hPa 0,0 mm 1,2 km/h (1 Bft) SW 225 0 min -3,7 C 0,0 km/h (0 Bft)
03.03.2016 10:50 0,0 C 2,1 C 77 % 1002,8 hPa 0,0 mm 1,2 km/h (1 Bft) SW 225 0 min -3,5 C 0,0 km/h (0 Bft)
03.03.2016 10:55 0,5 C 2,6 C 77 % 1002,8 hPa 0,0 mm 0,3 km/h (0 Bft) SW 225 0 min -3,1 C 0,0 km/h (0 Bft)
03.03.2016 11:00 0,8 C 3,1 C 78 % 1002,8 hPa 0,0 mm 0,0 km/h (0 Bft) SW 225 0 min -2,6 C 0,0 km/h (0 Bft)
03.03.2016 11:05 1,1 C 3,3 C 77 % 1002,8 hPa 0,0 mm 0,0 km/h (0 Bft) SW 225 0 min -2,5 C 0,0 km/h (0 Bft)
03.03.2016 11:10 1,3 C 3,5 C 77 % 1002,7 hPa 0,0 mm 0,0 km/h (0 Bft) SW 225 0 min -2,3 C 0,0 km/h (0 Bft)
03.03.2016 11:15 0,9 C 3,9 C 76 % 1002,7 hPa 0,0 mm 0,9 km/h (0 Bft) SW 225 0 min -2,8 C 7,7 km/h (2 Bft)
03.03.2016 11:20 0,8 C 4,0 C 75 % 1002,7 hPa 0,0 mm 1,2 km/h (1 Bft) SW 225 0 min -3,1 C 4,8 km/h (1 Bft)
03.03.2016 11:25 0,8 C 4,2 C 75 % 1002,7 hPa 0,0 mm 3,0 km/h (1 Bft) SW 225 0 min -3,1 C 5,7 km/h (1 Bft)
03.03.2016 11:30 0,8 C 4,7 C 74 % 1002,8 hPa 0,0 mm 2,1 km/h (1 Bft) W-SW 247 0 min -3,3 C 0,0 km/h (0 Bft)
03.03.2016 11:35 1,4 C 5,4 C 74 % 1002,8 hPa 0,0 mm 0,3 km/h (0 Bft) W-SW 247 0 min -2,7 C 0,0 km/h (0 Bft)
03.03.2016 11:40 1,3 C 5,8 C 73 % 1002,8 hPa 0,0 mm 0,0 km/h (0 Bft) W-SW 247 0 min -3,0 C 0,0 km/h (0 Bft)
03.03.2016 11:45 1,0 C 6,5 C 72 % 1002,8 hPa 0,0 mm 0,0 km/h (0 Bft) W-SW 247 0 min -3,5 C 0,0 km/h (0 Bft)
03.03.2016 11:48 1,0 C 6,5 C 72 % 1002,8 hPa 0,0 mm 0,0 km/h (0 Bft) W-SW 247 0 min -3,5 C 0,0 km/h (0 Bft)
03.03.2016 11:50 1,4 C 6,8 C 73 % 1002,9 hPa 0,0 mm 0,0 km/h (0 Bft) W-SW 247 0 min -2,9 C 0,0 km/h (0 Bft)
03.03.2016 11:55 1,9 C 7,5 C 73 % 1002,9 hPa 0,0 mm 0,0 km/h (0 Bft) W-SW 247 0 min -2,4 C 0,0 km/h (0 Bft)
03.03.2016 12:00 1,9 C 7,7 C 72 % 1002,9 hPa 0,0 mm 0,0 km/h (0 Bft) W 270 5 min -2,6 C 0,0 km/h (0 Bft)
03.03.2016 12:05 2,3 C 7,6 C 72 % 1002,9 hPa 0,0 mm 0,0 km/h (0 Bft) W 270 0 min -2,2 C 0,0 km/h (0 Bft)
03.03.2016 12:10 2,5 C 7,7 C 72 % 1002,9 hPa 0,7 mm 0,0 km/h (0 Bft) N-NO 22 0 min -2,0 C 0,0 km/h (0 Bft)
03.03.2016 12:15 2,8 C 8,3 C 72 % 1002,9 hPa 0,0 mm 0,0 km/h (0 Bft) NO 45 0 min -1,7 C 0,0 km/h (0 Bft)
03.03.2016 12:20 2,7 C 8,3 C 71 % 1002,9 hPa 0,0 mm 0,3 km/h (0 Bft) O-NO 67 5 min -2,0 C 5,1 km/h (1 Bft)
03.03.2016 12:25 2,6 C 8,2 C 71 % 1002,9 hPa 0,0 mm 1,8 km/h (1 Bft) NO 45 5 min -2,1 C 7,7 km/h (2 Bft)
03.03.2016 12:30 2,2 C 7,6 C 69 % 1002,8 hPa 0,0 mm 3,3 km/h (1 Bft) N-NO 22 0 min -2,9 C 5,1 km/h (1 Bft)
03.03.2016 12:35 2,2 C 7,6 C 69 % 1002,8 hPa 0,7 mm 3,3 km/h (1 Bft) O-NO 67 0 min -2,9 C 4,5 km/h (1 Bft)
03.03.2016 12:40 2,2 C 7,7 C 71 % 1002,8 hPa 0,0 mm 2,1 km/h (1 Bft) O-SO 112 0 min -2,5 C 0,0 km/h (0 Bft)
03.03.2016 12:45 2,0 C 7,6 C 69 % 1002,8 hPa 0,0 mm 3,0 km/h (1 Bft) O-SO 112 5 min -3,1 C 6,9 km/h (2 Bft)
03.03.2016 12:50 2,0 C 7,4 C 70 % 1002,8 hPa 0,0 mm 3,0 km/h (1 Bft) O-NO 67 0 min -2,9 C 6,6 km/h (2 Bft)
03.03.2016 12:55 1,9 C 7,0 C 69 % 1002,8 hPa 0,7 mm 3,3 km/h (1 Bft) NO 45 0 min -3,2 C 3,6 km/h (1 Bft)
03.03.2016 13:00 1,8 C 6,8 C 69 % 1002,8 hPa 0,0 mm 3,6 km/h (1 Bft) SW 225 0 min -3,3 C 0,0 km/h (0 Bft)
03.03.2016 13:05 1,8 C 7,0 C 69 % 1002,8 hPa 0,0 mm 3,0 km/h (1 Bft) NO 45 0 min -3,3 C 5,4 km/h (1 Bft)
03.03.2016 13:10 1,9 C 7,0 C 69 % 1002,8 hPa 0,0 mm 3,9 km/h (1 Bft) O-NO 67 0 min -3,2 C 6,9 km/h (2 Bft)
03.03.2016 13:15 1,7 C 6,8 C 70 % 1002,8 hPa 0,0 mm 4,8 km/h (1 Bft) NO 45 0 min -3,2 C 6,9 km/h (2 Bft)
03.03.2016 13:20 1,7 C 6,5 C 70 % 1002,8 hPa 0,0 mm 6,0 km/h (2 Bft) O-NO 67 0 min -3,2 C 8,0 km/h (2 Bft)
03.03.2016 13:25 1,6 C 5,6 C 70 % 1002,8 hPa 0,0 mm 7,5 km/h (2 Bft) O-NO 67 0 min -3,3 C 10,7 km/h (2 Bft)
03.03.2016 13:30 1,5 C 5,6 C 70 % 1002,5 hPa 0,0 mm 6,6 km/h (2 Bft) O-NO 67 0 min -3,4 C 4,2 km/h (1 Bft)
03.03.2016 13:35 1,7 C 5,8 C 71 % 1002,5 hPa 0,7 mm 6,3 km/h (2 Bft) NO 45 0 min -3,0 C 6,9 km/h (2 Bft)
03.03.2016 13:40 1,8 C 5,9 C 71 % 1002,5 hPa 0,0 mm 6,9 km/h (2 Bft) NO 45 0 min -2,9 C 9,5 km/h (2 Bft)
03.03.2016 13:45 1,7 C 5,3 C 71 % 1002,5 hPa 0,0 mm 9,2 km/h (2 Bft) O-NO 67 0 min -3,0 C 10,4 km/h (2 Bft)
03.03.2016 13:50 1,8 C 5,4 C 71 % 1002,3 hPa 0,0 mm 8,3 km/h (2 Bft) O-NO 67 0 min -2,9 C 5,4 km/h (1 Bft)
03.03.2016 13:55 1,9 C 6,1 C 71 % 1002,3 hPa 0,0 mm 6,3 km/h (2 Bft) O-NO 67 0 min -2,8 C 7,2 km/h (2 Bft)
03.03.2016 14:00 1,8 C 6,0 C 71 % 1002,3 hPa 0,0 mm 5,4 km/h (1 Bft) O-SO 112 0 min -2,9 C 3,9 km/h (1 Bft)
03.03.2016 14:05 1,9 C 6,0 C 72 % 1002,3 hPa 0,0 mm 4,8 km/h (1 Bft) O-NO 67 0 min -2,6 C 8,9 km/h (2 Bft)
03.03.2016 14:10 1,9 C 6,1 C 71 % 1002,1 hPa 0,0 mm 5,1 km/h (1 Bft) O 90 0 min -2,8 C 5,4 km/h (1 Bft)
03.03.2016 14:15 2,0 C 6,5 C 72 % 1002,1 hPa 0,0 mm 4,8 km/h (1 Bft) O-NO 67 0 min -2,5 C 6,3 km/h (2 Bft)
03.03.2016 14:20 2,0 C 6,5 C 72 % 1002,1 hPa 0,0 mm 4,5 km/h (1 Bft) O-NO 67 0 min -2,5 C 7,5 km/h (2 Bft)
03.03.2016 14:25 2,3 C 6,5 C 72 % 1002,1 hPa 0,0 mm 4,2 km/h (1 Bft) N 360 0 min -2,2 C 5,4 km/h (1 Bft)
03.03.2016 14:30 2,3 C 6,5 C 72 % 1001,6 hPa 0,0 mm 3,9 km/h (1 Bft) NO 45 0 min -2,2 C 6,9 km/h (2 Bft)
03.03.2016 14:35 2,2 C 6,1 C 72 % 1001,6 hPa 0,0 mm 5,4 km/h (1 Bft) NO 45 0 min -2,3 C 7,5 km/h (2 Bft)
03.03.2016 14:40 2,2 C 6,2 C 72 % 1001,6 hPa 0,0 mm 4,5 km/h (1 Bft) O-SO 112 0 min -2,3 C 0,0 km/h (0 Bft)
03.03.2016 14:45 2,3 C 6,4 C 72 % 1001,6 hPa 0,0 mm 4,5 km/h (1 Bft) NO 45 0 min -2,2 C 6,6 km/h (2 Bft)
03.03.2016 14:49 2,3 C 6,4 C 72 % 1001,6 hPa 0,0 mm 4,5 km/h (1 Bft) NO 45 0 min -2,2 C 6,6 km/h (2 Bft)
03.03.2016 14:50 2,3 C 6,6 C 73 % 1001,4 hPa 0,0 mm 3,0 km/h (1 Bft) O-NO 67 0 min -2,0 C 0,0 km/h (0 Bft)
03.03.2016 14:55 2,4 C 6,7 C 72 % 1001,4 hPa 0,0 mm 2,4 km/h (1 Bft) SO 135 0 min -2,1 C 0,0 km/h (0 Bft)
03.03.2016 15:00 2,4 C 6,8 C 72 % 1001,4 hPa 0,0 mm 2,1 km/h (1 Bft) NO 45 0 min -2,1 C 5,7 km/h (1 Bft)
03.03.2016 15:05 2,4 C 6,3 C 72 % 1001,4 hPa 0,0 mm 2,7 km/h (1 Bft) NO 45 0 min -2,1 C 3,3 km/h (1 Bft)
03.03.2016 15:10 2,4 C 6,2 C 72 % 1001,5 hPa 0,0 mm 4,2 km/h (1 Bft) NO 45 0 min -2,1 C 5,1 km/h (1 Bft)
03.03.2016 15:15 2,5 C 6,5 C 72 % 1001,5 hPa 0,0 mm 3,6 km/h (1 Bft) O-NO 67 0 min -2,0 C 4,5 km/h (1 Bft)
03.03.2016 15:20 2,4 C 6,2 C 72 % 1001,5 hPa 0,0 mm 3,0 km/h (1 Bft) N-NO 22 0 min -2,1 C 3,3 km/h (1 Bft)
03.03.2016 15:25 2,3 C 5,7 C 71 % 1001,5 hPa 0,0 mm 1,2 km/h (1 Bft) O-NO 67 0 min -2,4 C 0,0 km/h (0 Bft)
03.03.2016 15:30 2,2 C 5,3 C 72 % 1001,4 hPa 0,0 mm 0,6 km/h (0 Bft) O-NO 67 0 min -2,3 C 0,0 km/h (0 Bft)
03.03.2016 15:35 2,3 C 4,7 C 72 % 1001,4 hPa 0,0 mm 0,6 km/h (0 Bft) O-SO 112 0 min -2,2 C 0,0 km/h (0 Bft)
03.03.2016 15:40 2,3 C 4,6 C 72 % 1001,4 hPa 0,0 mm 0,3 km/h (0 Bft) O 90 0 min -2,2 C 0,0 km/h (0 Bft)
03.03.2016 15:45 2,3 C 4,4 C 72 % 1001,4 hPa 0,0 mm 0,0 km/h (0 Bft) O-NO 67 0 min -2,2 C 0,0 km/h (0 Bft)
03.03.2016 15:50 2,3 C 4,3 C 72 % 1001,4 hPa 0,0 mm 0,0 km/h (0 Bft) O-NO 67 0 min -2,2 C 0,0 km/h (0 Bft)
03.03.2016 15:55 2,2 C 4,2 C 72 % 1001,4 hPa 0,0 mm 0,0 km/h (0 Bft) N-NW 337 0 min -2,3 C 0,0 km/h (0 Bft)
03.03.2016 16:00 1,9 C 4,0 C 72 % 1001,4 hPa 0,0 mm 0,0 km/h (0 Bft) NW 315 0 min -2,6 C 0,0 km/h (0 Bft)
03.03.2016 16:05 1,7 C 3,8 C 72 % 1001,4 hPa 0,0 mm 0,0 km/h (0 Bft) W-NW 292 0 min -2,8 C 0,0 km/h (0 Bft)
03.03.2016 16:10 1,5 C 3,3 C 72 % 1001,4 hPa 0,0 mm 0,3 km/h (0 Bft) W-NW 292 0 min -3,0 C 0,0 km/h (0 Bft)
03.03.2016 16:15 1,4 C 2,7 C 73 % 1001,4 hPa 0,0 mm 0,6 km/h (0 Bft) W 270 0 min -2,9 C 0,0 km/h (0 Bft)
03.03.2016 16:20 1,4 C 2,4 C 73 % 1001,4 hPa 0,0 mm 0,3 km/h (0 Bft) W-NW 292 0 min -2,9 C 0,0 km/h (0 Bft)
03.03.2016 16:25 1,3 C 2,0 C 73 % 1001,4 hPa 0,0 mm 0,0 km/h (0 Bft) W-NW 292 0 min -3,0 C 0,0 km/h (0 Bft)
03.03.2016 16:30 1,1 C 1,8 C 74 % 1001,6 hPa 0,0 mm 0,3 km/h (0 Bft) NW 315 0 min -3,0 C 3,9 km/h (1 Bft)
03.03.2016 16:35 1,0 C 1,1 C 74 % 1001,6 hPa 0,0 mm 6,3 km/h (2 Bft) NW 315 0 min -3,1 C 27,1 km/h (4 Bft)
03.03.2016 16:40 0,9 C 0,5 C 74 % 1001,6 hPa 0,0 mm 9,8 km/h (2 Bft) NW 315 0 min -3,2 C 9,2 km/h (2 Bft)
03.03.2016 16:45 0,6 C 0,3 C 75 % 1001,6 hPa 0,0 mm 9,5 km/h (2 Bft) W-SW 247 0 min -3,3 C 14,6 km/h (3 Bft)
03.03.2016 16:50 0,5 C 0,3 C 75 % 1001,7 hPa 0,0 mm 8,9 km/h (2 Bft) NW 315 0 min -3,4 C 11,6 km/h (2 Bft)
03.03.2016 16:55 0,5 C 0,5 C 76 % 1001,7 hPa 0,0 mm 6,6 km/h (2 Bft) W 270 0 min -3,2 C 5,1 km/h (1 Bft)
03.03.2016 17:00 0,4 C 0,7 C 76 % 1001,7 hPa 0,0 mm 4,8 km/h (1 Bft) W 270 0 min -3,3 C 6,3 km/h (2 Bft)
03.03.2016 17:05 0,4 C 0,3 C 77 % 1001,7 hPa 0,0 mm 6,6 km/h (2 Bft) W-SW 247 0 min -3,1 C 20,0 km/h (4 Bft)
03.03.2016 17:10 0,2 C 0,3 C 78 % 1001,7 hPa 0,0 mm 6,9 km/h (2 Bft) W 270 0 min -3,2 C 0,0 km/h (0 Bft)
03.03.2016 17:15 0,2 C 0,2 C 78 % 1001,7 hPa 0,0 mm 7,5 km/h (2 Bft) NW 315 0 min -3,2 C 17,9 km/h (3 Bft)
03.03.2016 17:20 0,2 C 0,2 C 78 % 1001,7 hPa 0,0 mm 7,2 km/h (2 Bft) W-SW 247 0 min -3,2 C 8,9 km/h (2 Bft)
03.03.2016 17:25 0,2 C 0,1 C 79 % 1001,7 hPa 0,0 mm 6,9 km/h (2 Bft) W 270 0 min -3,0 C 6,3 km/h (2 Bft)
03.03.2016 17:30 0,2 C 0,1 C 79 % 1002,2 hPa 0,0 mm 5,7 km/h (1 Bft) W-SW 247 0 min -3,0 C 10,4 km/h (2 Bft)
03.03.2016 17:35 0,1 C -0,2 C 79 % 1002,2 hPa 0,0 mm 7,2 km/h (2 Bft) W-SW 247 0 min -3,1 C 11,3 km/h (2 Bft)
03.03.2016 17:40 0,1 C -0,2 C 79 % 1002,2 hPa 0,0 mm 7,2 km/h (2 Bft) W-NW 292 0 min -3,1 C 5,7 km/h (1 Bft)
03.03.2016 17:45 0,2 C -0,1 C 80 % 1002,2 hPa 0,0 mm 6,3 km/h (2 Bft) NW 315 0 min -2,8 C 7,5 km/h (2 Bft)
03.03.2016 17:49 0,2 C -0,3 C 81 % 1002,3 hPa 0,0 mm 6,9 km/h (2 Bft) W-SW 247 0 min -2,7 C 12,2 km/h (2 Bft)
03.03.2016 17:50 0,2 C -0,3 C 81 % 1002,3 hPa 0,0 mm 6,9 km/h (2 Bft) W-SW 247 0 min -2,7 C 12,2 km/h (2 Bft)
03.03.2016 17:55 0,0 C -0,4 C 80 % 1002,3 hPa 0,0 mm 7,5 km/h (2 Bft) W-NW 292 0 min -3,0 C 8,0 km/h (2 Bft)
03.03.2016 18:00 0,0 C -0,5 C 80 % 1002,3 hPa 0,0 mm 7,7 km/h (2 Bft) W-SW 247 0 min -3,0 C 13,1 km/h (3 Bft)
03.03.2016 18:05 0,0 C -0,5 C 80 % 1002,3 hPa 0,0 mm 7,5 km/h (2 Bft) W-NW 292 0 min -3,0 C 8,0 km/h (2 Bft)
03.03.2016 18:10 0,0 C -0,6 C 83 % 1002,6 hPa 0,0 mm 6,9 km/h (2 Bft) NW 315 0 min -2,5 C 10,1 km/h (2 Bft)
03.03.2016 18:15 -0,1 C -0,5 C 83 % 1002,6 hPa 0,0 mm 6,0 km/h (2 Bft) W 270 0 min -2,6 C 6,3 km/h (2 Bft)
03.03.2016 18:20 -0,1 C -0,7 C 84 % 1002,6 hPa 0,0 mm 7,2 km/h (2 Bft) W 270 0 min -2,5 C 5,4 km/h (1 Bft)
03.03.2016 18:25 -0,1 C -0,6 C 84 % 1002,6 hPa 0,0 mm 6,3 km/h (2 Bft) W 270 0 min -2,5 C 9,2 km/h (2 Bft)
03.03.2016 18:30 -0,1 C -0,5 C 84 % 1002,6 hPa 0,0 mm 5,1 km/h (1 Bft) S 180 0 min -2,5 C 7,2 km/h (2 Bft)
03.03.2016 18:35 -0,1 C -0,5 C 84 % 1002,6 hPa 0,0 mm 5,1 km/h (1 Bft) W-SW 247 0 min -2,5 C 14,9 km/h (3 Bft)
03.03.2016 18:40 -0,1 C -0,5 C 84 % 1002,6 hPa 0,0 mm 5,4 km/h (1 Bft) W 270 0 min -2,5 C 6,3 km/h (2 Bft)
03.03.2016 18:45 -0,1 C -0,6 C 84 % 1002,6 hPa 0,0 mm 6,3 km/h (2 Bft) W-SW 247 0 min -2,5 C 3,9 km/h (1 Bft)
03.03.2016 18:50 -0,1 C -0,4 C 84 % 1003,0 hPa 0,0 mm 4,5 km/h (1 Bft) W-SW 247 0 min -2,5 C 0,0 km/h (0 Bft)
03.03.2016 18:55 -0,1 C -0,4 C 84 % 1003,0 hPa 0,0 mm 4,5 km/h (1 Bft) N 360 0 min -2,5 C 5,7 km/h (1 Bft)
03.03.2016 19:00 -0,2 C -0,4 C 84 % 1003,0 hPa 0,0 mm 4,5 km/h (1 Bft) W 270 0 min -2,6 C 13,4 km/h (3 Bft)
03.03.2016 19:05 -0,2 C -0,4 C 84 % 1003,0 hPa 0,0 mm 4,5 km/h (1 Bft) W 270 0 min -2,6 C 4,2 km/h (1 Bft)
03.03.2016 19:10 -0,2 C -0,5 C 84 % 1003,3 hPa 0,0 mm 4,8 km/h (1 Bft) W 270 0 min -2,6 C 3,9 km/h (1 Bft)
03.03.2016 19:15 -0,2 C -0,6 C 85 % 1003,3 hPa 0,0 mm 5,1 km/h (1 Bft) W 270 0 min -2,4 C 6,3 km/h (2 Bft)
03.03.2016 19:20 -0,2 C -0,6 C 85 % 1003,3 hPa 0,0 mm 5,4 km/h (1 Bft) W-SW 247 0 min -2,4 C 14,3 km/h (3 Bft)
03.03.2016 19:25 -0,2 C -0,7 C 85 % 1003,3 hPa 0,0 mm 6,3 km/h (2 Bft) W-SW 247 0 min -2,4 C 6,0 km/h (2 Bft)
03.03.2016 19:30 -0,2 C -0,9 C 85 % 1003,6 hPa 0,0 mm 7,5 km/h (2 Bft) NW 315 0 min -2,4 C 14,6 km/h (3 Bft)
03.03.2016 19:35 -0,2 C -0,8 C 85 % 1003,6 hPa 0,0 mm 7,2 km/h (2 Bft) W-NW 292 0 min -2,4 C 7,7 km/h (2 Bft)
03.03.2016 19:40 -0,2 C -0,7 C 85 % 1003,6 hPa 0,0 mm 6,3 km/h (2 Bft) W-SW 247 0 min -2,4 C 5,7 km/h (1 Bft)
03.03.2016 19:45 -0,2 C -0,8 C 85 % 1003,6 hPa 0,0 mm 7,2 km/h (2 Bft) W-SW 247 0 min -2,4 C 14,3 km/h (3 Bft)
03.03.2016 19:50 -0,3 C -0,9 C 85 % 1003,7 hPa 0,0 mm 7,2 km/h (2 Bft) SW 225 0 min -2,5 C 5,7 km/h (1 Bft)
03.03.2016 19:55 -0,4 C -0,9 C 84 % 1003,7 hPa 0,0 mm 6,6 km/h (2 Bft) W-SW 247 0 min -2,8 C 11,9 km/h (2 Bft)
03.03.2016 20:00 -0,5 C -0,9 C 84 % 1003,7 hPa 0,0 mm 6,0 km/h (2 Bft) SW 225 0 min -2,9 C 4,8 km/h (1 Bft)
03.03.2016 20:05 -0,5 C -1,0 C 84 % 1003,7 hPa 0,0 mm 6,0 km/h (2 Bft) W-SW 247 0 min -2,9 C 10,4 km/h (2 Bft)
03.03.2016 20:10 -0,5 C -0,9 C 84 % 1003,7 hPa 0,0 mm 5,7 km/h (1 Bft) W 270 0 min -2,9 C 4,2 km/h (1 Bft)
03.03.2016 20:15 -0,5 C -1,0 C 84 % 1003,7 hPa 0,0 mm 6,0 km/h (2 Bft) W-SW 247 0 min -2,9 C 6,6 km/h (2 Bft)
03.03.2016 20:20 -0,4 C -0,9 C 84 % 1003,7 hPa 0,0 mm 6,0 km/h (2 Bft) W 270 0 min -2,8 C 13,1 km/h (3 Bft)
03.03.2016 20:25 -0,3 C -0,9 C 85 % 1003,7 hPa 0,0 mm 6,6 km/h (2 Bft) W-SW 247 0 min -2,5 C 5,7 km/h (1 Bft)
03.03.2016 20:30 -0,4 C -0,8 C 85 % 1004,0 hPa 0,0 mm 6,0 km/h (2 Bft) W-SW 247 0 min -2,6 C 6,0 km/h (2 Bft)
03.03.2016 20:35 -0,5 C -0,7 C 85 % 1004,0 hPa 0,0 mm 3,0 km/h (1 Bft) W 270 0 min -2,7 C 0,0 km/h (0 Bft)
03.03.2016 20:40 -0,5 C -0,7 C 85 % 1004,0 hPa 0,0 mm 3,0 km/h (1 Bft) W-SW 247 0 min -2,7 C 0,0 km/h (0 Bft)
03.03.2016 20:45 -0,5 C -0,7 C 85 % 1004,0 hPa 0,0 mm 3,3 km/h (1 Bft) SW 225 0 min -2,7 C 4,8 km/h (1 Bft)
03.03.2016 20:49 -0,5 C -0,7 C 85 % 1004,1 hPa 0,0 mm 3,3 km/h (1 Bft) W-SW 247 0 min -2,7 C 5,4 km/h (1 Bft)
03.03.2016 20:51 -0,5 C -0,7 C 85 % 1004,1 hPa 0,0 mm 3,3 km/h (1 Bft) W-SW 247 0 min -2,7 C 5,4 km/h (1 Bft)
03.03.2016 20:55 -0,5 C -0,7 C 85 % 1004,1 hPa 0,0 mm 3,9 km/h (1 Bft) W-SW 247 0 min -2,7 C 3,3 km/h (1 Bft)
03.03.2016 21:00 -0,5 C -0,7 C 85 % 1004,1 hPa 0,0 mm 3,3 km/h (1 Bft) W-SW 247 0 min -2,7 C 5,7 km/h (1 Bft)
03.03.2016 21:05 -0,5 C -0,7 C 85 % 1004,1 hPa 0,0 mm 3,9 km/h (1 Bft) W-SW 247 0 min -2,7 C 5,4 km/h (1 Bft)
03.03.2016 21:10 -0,5 C -0,9 C 86 % 1004,2 hPa 0,0 mm 5,1 km/h (1 Bft) SW 225 0 min -2,5 C 3,9 km/h (1 Bft)
03.03.2016 21:15 -0,5 C -0,7 C 86 % 1004,2 hPa 0,0 mm 3,6 km/h (1 Bft) W 270 0 min -2,5 C 3,6 km/h (1 Bft)
03.03.2016 21:20 -0,5 C -0,7 C 86 % 1004,2 hPa 0,0 mm 3,0 km/h (1 Bft) NW 315 0 min -2,5 C 6,6 km/h (2 Bft)
03.03.2016 21:25 -0,5 C -0,8 C 86 % 1004,2 hPa 0,0 mm 5,1 km/h (1 Bft) W 270 0 min -2,5 C 11,9 km/h (2 Bft)
03.03.2016 21:30 -0,5 C -1,1 C 83 % 1004,6 hPa 0,0 mm 8,3 km/h (2 Bft) W-SW 247 0 min -3,0 C 14,9 km/h (3 Bft)
03.03.2016 21:35 -0,5 C -1,3 C 84 % 1004,6 hPa 0,0 mm 10,7 km/h (2 Bft) W-SW 247 0 min -2,9 C 11,0 km/h (2 Bft)
03.03.2016 21:40 -0,5 C -1,2 C 84 % 1004,6 hPa 0,0 mm 10,1 km/h (2 Bft) NW 315 0 min -2,9 C 6,6 km/h (2 Bft)
03.03.2016 21:45 -0,5 C -1,3 C 84 % 1004,6 hPa 0,0 mm 10,7 km/h (2 Bft) W-NW 292 0 min -2,9 C 22,1 km/h (4 Bft)
03.03.2016 21:50 -0,5 C -1,3 C 84 % 1005,0 hPa 0,0 mm 10,7 km/h (2 Bft) W 270 0 min -2,9 C 11,0 km/h (2 Bft)
03.03.2016 21:55 -0,6 C -1,3 C 84 % 1005,0 hPa 0,0 mm 10,7 km/h (2 Bft) W 270 0 min -3,0 C 7,5 km/h (2 Bft)
03.03.2016 22:00 -0,6 C -1,3 C 84 % 1005,0 hPa 0,0 mm 9,5 km/h (2 Bft) S-SW 202 0 min -3,0 C 17,0 km/h (3 Bft)
03.03.2016 22:05 -0,6 C -1,3 C 84 % 1005,0 hPa 0,0 mm 9,2 km/h (2 Bft) W 270 0 min -3,0 C 12,8 km/h (3 Bft)
03.03.2016 22:10 -0,6 C -1,3 C 84 % 1005,2 hPa 0,0 mm 9,5 km/h (2 Bft) NW 315 0 min -3,0 C 10,1 km/h (2 Bft)
03.03.2016 22:15 -0,6 C -1,4 C 84 % 1005,2 hPa 0,0 mm 9,5 km/h (2 Bft) W 270 0 min -3,0 C 11,3 km/h (2 Bft)
03.03.2016 22:20 -0,6 C -1,5 C 87 % 1005,2 hPa 0,0 mm 10,1 km/h (2 Bft) W 270 0 min -2,5 C 20,0 km/h (4 Bft)
03.03.2016 22:25 -0,6 C -1,4 C 87 % 1005,2 hPa 0,0 mm 8,6 km/h (2 Bft) SW 225 0 min -2,5 C 6,3 km/h (2 Bft)
03.03.2016 22:30 -0,7 C -1,3 C 84 % 1005,5 hPa 0,0 mm 8,0 km/h (2 Bft) W-SW 247 0 min -3,1 C 6,3 km/h (2 Bft)
03.03.2016 22:35 -0,7 C -1,2 C 84 % 1005,5 hPa 0,0 mm 7,5 km/h (2 Bft) SW 225 0 min -3,1 C 4,8 km/h (1 Bft)
03.03.2016 22:40 -0,7 C -1,3 C 84 % 1005,5 hPa 0,0 mm 8,0 km/h (2 Bft) W 270 0 min -3,1 C 13,4 km/h (3 Bft)
03.03.2016 22:45 -0,7 C -1,4 C 84 % 1005,5 hPa 0,0 mm 9,5 km/h (2 Bft) W 270 0 min -3,1 C 17,3 km/h (3 Bft)
03.03.2016 22:50 -0,7 C -1,4 C 84 % 1005,8 hPa 0,0 mm 9,5 km/h (2 Bft) W 270 0 min -3,1 C 11,6 km/h (2 Bft)
03.03.2016 22:55 -0,7 C -1,4 C 84 % 1005,8 hPa 0,0 mm 8,6 km/h (2 Bft) W 270 0 min -3,1 C 12,2 km/h (2 Bft)
03.03.2016 23:00 -0,7 C -1,3 C 84 % 1005,8 hPa 0,0 mm 8,3 km/h (2 Bft) W 270 0 min -3,1 C 13,1 km/h (3 Bft)
03.03.2016 23:05 -0,7 C -1,3 C 84 % 1005,8 hPa 0,0 mm 8,6 km/h (2 Bft) W-SW 247 0 min -3,1 C 9,5 km/h (2 Bft)
03.03.2016 23:10 -0,7 C -1,3 C 84 % 1005,9 hPa 0,0 mm 8,6 km/h (2 Bft) SW 225 0 min -3,1 C 11,6 km/h (2 Bft)
03.03.2016 23:15 -0,7 C -1,3 C 84 % 1005,9 hPa 0,0 mm 8,3 km/h (2 Bft) S-SW 202 0 min -3,1 C 7,7 km/h (2 Bft)
03.03.2016 23:20 -0,7 C -1,3 C 84 % 1005,9 hPa 0,0 mm 8,3 km/h (2 Bft) S 180 0 min -3,1 C 9,2 km/h (2 Bft)
03.03.2016 23:25 -0,6 C -1,3 C 88 % 1005,9 hPa 0,0 mm 8,0 km/h (2 Bft) W-SW 247 0 min -2,3 C 11,9 km/h (2 Bft)
03.03.2016 23:30 -0,6 C -1,4 C 88 % 1006,1 hPa 0,0 mm 9,2 km/h (2 Bft) W-NW 292 0 min -2,3 C 12,5 km/h (3 Bft)
03.03.2016 23:35 -0,6 C -1,4 C 85 % 1006,1 hPa 0,0 mm 9,8 km/h (2 Bft) W 270 0 min -2,8 C 10,7 km/h (2 Bft)
03.03.2016 23:40 -0,6 C -1,3 C 85 % 1006,1 hPa 0,0 mm 8,9 km/h (2 Bft) W 270 0 min -2,8 C 7,2 km/h (2 Bft)
03.03.2016 23:45 -0,6 C -1,2 C 88 % 1006,1 hPa 0,0 mm 7,2 km/h (2 Bft) W 270 0 min -2,3 C 11,3 km/h (2 Bft)
03.03.2016 23:50 -0,6 C -1,2 C 88 % 1006,2 hPa 0,0 mm 7,2 km/h (2 Bft) W-NW 292 0 min -2,3 C 8,0 km/h (2 Bft)
03.03.2016 23:52 -0,6 C -1,2 C 88 % 1006,2 hPa 0,0 mm 7,2 km/h (2 Bft) W-NW 292 0 min -2,3 C 8,0 km/h (2 Bft)
03.03.2016 23:55 -0,7 C -1,3 C 85 % 1006,2 hPa 0,0 mm 8,3 km/h (2 Bft) NW 315 0 min -2,9 C 6,9 km/h (2 Bft)
_ Min-Zeit 02:46 02:50 13:10 16:25 - 16:25 - - - 08:30 20:40
Minimum _ -2,8 C -3,0 C 69 % 1001,4 hPa - 0,0 km/h (0 Bft) - - - -4,8 C 0,0 km/h (0 Bft)
_ Max-Zeit 12:15 12:20 03:50 23:55 13:35 03:10 - - 12:45 12:15 03:10
Maximum _ 2,8 C 8,3 C 89 % 1006,2 hPa 0,7 mm 14,0 km/h
SW (3 Bft)
- - 5 min -1,7 C 37,0 km/h
SW (5 Bft)
Durchschnitt _ -0,4 C 0,3 C 81 % 1003,0 hPa #2,7 mm 4,7 km/h (1 Bft) SW - #20 min. -3,3 C 6,2 km/h (2 Bft)